DW0333 Tranby-Lier NO current weather conditions

sailwx.info

Wind from 110 at 3 knots

Air temperature 5.0° C
Dewpoint 4.9° C

Last reported at 2014-Oct-23 10:44 UTC.
Time now 2014-Oct-23 11:51 UTC

Location: N 59°50' E 010°17'.
View on Google Maps.

See reports from other nearby stations

  
Tides and Currents Weather Stations Pressure Air Temp Water Temp Dewpoint Dewpoint Depression Visibility Wind Speed Wind Dir Waves Ship Positions
date/time (UTC)wind fromknots sea level pressurealtimeterstation pressurevisibilityair tempwater tempwave heightnotes
2014-Oct-23 10:44 110 3 5.0
2014-Oct-23 10:29 086 3 5.0
2014-Oct-23 10:13 034 2 4.4
2014-Oct-23 09:58 096 3 4.4
2014-Oct-23 09:44 070 1 3.9
2014-Oct-23 09:28 084 3 3.9
2014-Oct-23 09:12 070 4 3.9
2014-Oct-23 08:57 056 3 3.9
2014-Oct-23 08:42 107 4 3.9
2014-Oct-23 08:27 080 4 3.9
2014-Oct-23 08:12 112 4 3.9
2014-Oct-23 07:57 075 5 3.9
2014-Oct-23 07:42 085 3 3.3
2014-Oct-23 07:26 038 4 3.3
2014-Oct-23 07:11 117 4 3.3
2014-Oct-23 06:56 078 4 3.3
2014-Oct-23 06:41 111 5 2.8
2014-Oct-23 06:27 128 4 2.8
2014-Oct-23 06:11 063 4 2.8
2014-Oct-23 05:54 059 5 2.8
2014-Oct-23 05:39 119 4 2.8
2014-Oct-23 05:24 066 4 2.8
2014-Oct-23 05:09 085 4 2.2
2014-Oct-23 04:53 088 4 2.2
2014-Oct-23 04:38 044 4 2.2
2014-Oct-23 04:23 080 4 2.2
2014-Oct-23 04:08 046 4 2.2
2014-Oct-23 03:52 019 3 2.2
2014-Oct-23 03:37 084 3 2.2
2014-Oct-23 03:22 111 3 1.7
2014-Oct-23 03:07 053 3 1.7
2014-Oct-23 02:52 048 3 1.7
2014-Oct-23 02:37 106 3 1.7
2014-Oct-23 02:22 038 2 1.7
2014-Oct-23 02:06 030 3 1.7
2014-Oct-23 01:51 078 2 1.7
2014-Oct-23 01:36 034 3 1.7
2014-Oct-23 01:21 095 3 1.7
2014-Oct-23 01:06 061 3 1.7
2014-Oct-23 00:52 049 2 1.7
2014-Oct-23 00:37 082 3 1.7
2014-Oct-23 00:19 044 2 1.7
2014-Oct-23 00:04 066 3 1.7
2014-Oct-22 23:49 102 2 1.7
2014-Oct-22 23:33 042 3 1.7
2014-Oct-22 23:18 070 3 1.7
2014-Oct-22 23:03 090 3 1.7
2014-Oct-22 22:48 066 3 1.7
2014-Oct-22 22:32 086 3 1.7
2014-Oct-22 22:17 059 3 1.7
2014-Oct-22 22:02 073 3 1.7
2014-Oct-22 21:47 057 3 1.7
2014-Oct-22 21:32 077 2 1.7
2014-Oct-22 21:17 059 3 1.7
2014-Oct-22 21:02 035 2 1.7
2014-Oct-22 20:47 073 3 1.7
2014-Oct-22 20:31 017 4 1.7
2014-Oct-22 20:16 093 3 2.2
2014-Oct-22 20:02 052 2 2.2
2014-Oct-22 19:46 100 3 2.2
2014-Oct-22 19:31 065 3 2.2
2014-Oct-22 19:15 104 3 2.2
2014-Oct-22 18:59 089 3 2.2
2014-Oct-22 18:44 052 4 2.2
2014-Oct-22 18:29 069 5 2.2
2014-Oct-22 18:14 128 5 2.2
2014-Oct-22 17:59 085 4 2.2
2014-Oct-22 17:43 033 3 2.8
2014-Oct-22 17:28 145 4 2.8
2014-Oct-22 17:13 034 4 2.8
2014-Oct-22 16:57 116 3 2.8
2014-Oct-22 16:42 097 4 2.8
2014-Oct-22 16:27 086 5 2.8
2014-Oct-22 16:12 131 4 2.8
2014-Oct-22 15:57 061 3 3.3
2014-Oct-22 15:42 030 2 3.3
2014-Oct-22 15:27 115 3 3.3
2014-Oct-22 15:11 054 5 3.3
2014-Oct-22 14:57 102 4 3.3
2014-Oct-22 14:41 071 2 3.3
2014-Oct-22 14:26 030 3 3.3
2014-Oct-22 14:12 058 3 3.3
2014-Oct-22 13:56 058 4 3.3
2014-Oct-22 13:39 069 5 3.9
2014-Oct-22 13:24 114 5 3.9
2014-Oct-22 13:09 090 4 3.9
2014-Oct-22 12:54 110 4 3.9
2014-Oct-22 12:39 140 4 4.4
2014-Oct-22 12:24 033 4 4.4
2014-Oct-22 12:08 033 4 4.4
2014-Oct-22 11:53 132 5 4.4
2014-Oct-22 11:38 100 4 4.4
2014-Oct-22 11:22 063 5 4.4
2014-Oct-22 11:08 067 4 4.4
2014-Oct-22 10:52 048 4 4.4
2014-Oct-22 10:38 092 3 5.0
2014-Oct-22 10:23 129 3 5.0
2014-Oct-22 10:08 032 2 5.0
2014-Oct-22 09:52 001 1 5.0
2014-Oct-22 09:36 036 1 5.0
2014-Oct-22 09:21 016 1 5.0
2014-Oct-22 09:06 103 2 5.0
2014-Oct-22 08:51 128 3 5.0
2014-Oct-22 08:36 117 1 5.0
2014-Oct-22 08:21 067 3 5.0
2014-Oct-22 08:04 055 2 5.0
2014-Oct-22 07:49 083 1 5.6
2014-Oct-22 07:34 060 2 5.6
2014-Oct-22 07:18 101 2 5.6
2014-Oct-22 07:04 043 1 5.6
2014-Oct-22 06:48 065 3 5.6
2014-Oct-22 06:33 030 3 5.6
2014-Oct-22 06:18 146 3 5.6
2014-Oct-22 06:02 098 3 5.6
2014-Oct-22 05:47 117 2 5.6
2014-Oct-22 05:32 086 2 5.6
2014-Oct-22 05:17 004 2 5.6
2014-Oct-22 05:02 063 2 5.6
2014-Oct-22 04:47 034 4 5.6
2014-Oct-22 04:32 054 4 6.1
2014-Oct-22 04:16 098 3 6.1
2014-Oct-22 04:01 033 3 6.1
2014-Oct-22 03:46 016 3 6.1
2014-Oct-22 03:31 028 2 6.1
2014-Oct-22 03:16 025 3 6.1
2014-Oct-22 03:01 070 3 6.1
2014-Oct-22 02:47 031 2 6.1
2014-Oct-22 02:29 049 2 6.1
2014-Oct-22 02:14 163 4 6.1
2014-Oct-22 01:59 068 2 6.1
2014-Oct-22 01:44 140 4 6.1
2014-Oct-22 01:29 059 4 6.1
2014-Oct-22 01:13 106 3 6.1
2014-Oct-22 00:58 100 3 6.1
2014-Oct-22 00:43 123 3 6.1
2014-Oct-22 00:27 127 5 6.1
2014-Oct-22 00:12 059 4 6.1
2014-Oct-21 23:57 127 4 6.1
2014-Oct-21 23:42 002 4 6.1
2014-Oct-21 23:27 094 3 5.6
2014-Oct-21 23:12 023 4 5.6
2014-Oct-21 22:56 059 4 5.6
2014-Oct-21 22:41 084 4 5.6
2014-Oct-21 22:26 046 4 5.6
2014-Oct-21 22:11 100 4 5.6
2014-Oct-21 21:56 106 5 5.6
2014-Oct-21 21:41 048 4 5.6
2014-Oct-21 21:24 056 5 5.6
2014-Oct-21 21:09 032 4 5.6
2014-Oct-21 20:54 054 5 5.6
2014-Oct-21 20:39 040 5 5.6
2014-Oct-21 20:24 146 4 6.1
2014-Oct-21 20:08 109 3 6.1
2014-Oct-21 19:53 040 4 6.1
2014-Oct-21 19:38 036 4 6.1
2014-Oct-21 19:23 112 4 6.1
2014-Oct-21 19:08 084 4 6.1
2014-Oct-21 18:52 071 5 6.1
2014-Oct-21 18:37 131 5 6.1
2014-Oct-21 18:22 032 4 6.1
2014-Oct-21 18:07 073 4 6.7
2014-Oct-21 17:52 106 4 6.7
2014-Oct-21 17:37 047 6 6.7
2014-Oct-21 17:22 104 5 6.7
2014-Oct-21 17:06 109 6 6.7
2014-Oct-21 16:51 105 6 7.2
2014-Oct-21 16:36 098 5 7.2
2014-Oct-21 16:21 076 6 7.2
2014-Oct-21 16:07 062 6 7.2
2014-Oct-21 15:49 038 6 7.2
2014-Oct-21 15:34 095 5 7.2
2014-Oct-21 15:19 057 6 7.2
2014-Oct-21 15:04 085 6 7.2
2014-Oct-21 14:48 052 5 7.8
2014-Oct-21 14:33 100 5 7.8
2014-Oct-21 14:18 081 6 7.8
2014-Oct-21 14:03 093 5 7.8
2014-Oct-21 13:48 087 5 7.8
2014-Oct-21 13:32 041 5 7.8
2014-Oct-21 13:17 046 6 7.8
2014-Oct-21 13:02 106 4 7.8
2014-Oct-21 12:48 101 4 7.8
2014-Oct-21 12:32 086 4 7.2
2014-Oct-21 12:17 098 1 7.2
2014-Oct-21 12:02 102 1 7.2
2014-Oct-21 11:46 084 1 7.8
2014-Oct-21 11:31 059 1 7.8
2014-Oct-21 11:16 082 2 7.8
2014-Oct-21 11:01 096 3 7.8